Tampico, Mexico

2:16 PM CDT on May 29, 2017 (GMT -0500)
Gen Francisco Javier Mina

Weather History for MMTM - October, 2012

Change the Weather History Date:

Thursday, October 25, 2012

  Actual Average Record
Temperature  
Mean Temperature 80 °F -  
Max Temperature 91 °F 81 °F 96 °F (1997)
Min Temperature 70 °F 64 °F 53 °F (2005)
Cooling Degree Days 16    
Growing Degree Days 30 (Base 50)    
Moisture  
Dew Point 71 °F    
Average Humidity 73    
Maximum Humidity 99    
Minimum Humidity 51    
Precipitation  
Precipitation 0.00 in 0.06 in - ()
Sea Level Pressure  
Sea Level Pressure 29.85 in    
Wind  
Wind Speed 4 mph ()    
Max Wind Speed 13 mph    
Max Gust Speed -    
Visibility 10.1 miles    
Events      
Averages and records for this station are not official NWS values.
T = Trace of Precipitation, MM = Missing Value Source: Averaged Metar Reports

Daily Weather History Graph

Daily Weather History Graph

Search for Another Location

Airport or City:

Trip Planner

Search our weather history database for the weather conditions in past years. The results will help you decide how hot, cold, wet, or windy it might be!

Date:

Astronomy

Oct. 25, 2012 Rise Set
Actual Time 7:32 AM CDT 6:58 PM CDT
Civil Twilight 7:09 AM CDT 7:21 PM CDT
Nautical Twilight 6:43 AM CDT 7:47 PM CDT
Astronomical Twilight 6:17 AM CDT 8:13 PM CDT
Moon 4:23 PM CDT (10/25) 3:55 AM CDT (10/25)
Length of Visible Light 12h 11m
Length of Day
11h 25m
Waxing Gibbous, 84% of the Moon is Illuminated
Oct 25
Waxing Gibbous
Oct 29
Full
Nov 6
Last Quarter
Nov 13
New
Nov 20
First Quarter

Hourly Weather History & Observations

Time (CDT) Temp. Heat Index Dew Point Humidity Pressure Visibility Wind Dir Wind Speed Gust Speed Precip Events Conditions
5:40 AM 73.4 °F - 69.8 °F 88% 29.86 in 6.0 mi Calm Calm - N/A   Clear
6:40 AM 71 °F - 71 °F 99% 29.91 in 6 mi NW 2.2 mph - -  
6:44 AM 71.6 °F - 68.0 °F 88% 29.83 in 6.0 mi Calm Calm - N/A   Clear
7:40 AM 71.6 °F - 69.8 °F 94% 29.88 in 7.0 mi Calm Calm - N/A   Clear
8:41 AM 77.0 °F - 71.6 °F 83% 29.88 in 7.0 mi Calm Calm - N/A   Clear
9:40 AM 79 °F - 73 °F 76% 29.92 in 16 mi SSW 2.2 mph - -  
9:40 AM 78.8 °F - 69.8 °F 74% 29.89 in 10.0 mi South 4.6 mph - N/A   Clear
10:42 AM 80.6 °F 83.2 °F 68.0 °F 65% 29.89 in 10.0 mi South 8.1 mph - N/A   Clear
11:40 AM 82.4 °F 85.4 °F 68.0 °F 62% 29.88 in 10.0 mi South 6.9 mph - N/A   Partly Cloudy
12:40 PM 87 °F - 71 °F 51% 29.89 in 16 mi South 4.5 mph - -   Scattered Clouds
12:44 PM 84.2 °F 87.3 °F 68.0 °F 58% 29.86 in 10.0 mi SSW 8.1 mph - N/A   Partly Cloudy
1:50 PM 86.0 °F 91.8 °F 71.6 °F 62% 29.81 in 10.0 mi SE 6.9 mph - N/A   Partly Cloudy
2:50 PM 84.2 °F 88.4 °F 69.8 °F 62% 29.79 in 10.0 mi ESE 6.9 mph - N/A   Clear
3:45 PM 89 °F - 73 °F 51% 29.81 in 16 mi ESE 8.9 mph - -   Scattered Clouds
3:46 PM 84.2 °F 87.3 °F 68.0 °F 58% 29.77 in 10.0 mi SE 9.2 mph - N/A   Clear
4:46 PM 84.2 °F 87.3 °F 68.0 °F 58% 29.78 in 10.0 mi SE 12.7 mph - N/A   Clear
5:50 PM 82.4 °F 85.4 °F 68.0 °F 62% 29.78 in 10.0 mi SE 11.5 mph - N/A   Clear
6:40 PM 82 °F - 71 °F 63% 29.82 in 16 mi ESE 8.9 mph - -  
6:42 PM 80.6 °F 83.9 °F 69.8 °F 70% 29.79 in 10.0 mi SE 11.5 mph - N/A   Clear
7:53 PM 78.8 °F - 71.6 °F 78% 29.82 in 10.0 mi SE 12.7 mph - N/A   Clear
8:45 PM 78.8 °F - 73.4 °F 83% 29.83 in 10.0 mi SE 9.2 mph - N/A   Clear
9:40 PM 77 °F - 75 °F 93% 29.89 in 6 mi ESE 4.5 mph - -   Scattered Clouds
9:48 PM 78.8 °F - 71.6 °F 78% 29.86 in 10.0 mi SE 6.9 mph - N/A   Clear
10:48 PM 77.0 °F - 73.4 °F 89% 29.87 in 10.0 mi SSE 8.1 mph - N/A   Clear